This is the latest recevied weather packets stored in our database for station/object SQ7IQO. If no packets are shown the sender has not sent any weather packets the latest 10 day(s).
| Time | Temp. | Humidity | Pressure | Rain* | Wind** | Luminosity | Snow |
|---|---|---|---|---|---|---|---|
| 1787822860 | 23.89° C | 48% | 1024.7 hPa | 0 mm | 0.45 m/s, ° | - | - |
| 1787822799 | 23.33° C | 47% | 1024.7 hPa | 0 mm | 0 m/s | - | - |
| 1787822740 | 23.33° C | 46% | 1024.7 hPa | 0 mm | 0 m/s | - | - |
| 1787822679 | 23.33° C | 46% | 1024.7 hPa | 0 mm | 0.45 m/s, ° | - | - |
| 1787822619 | 23.33° C | 51% | 1024.6 hPa | 0 mm | 0 m/s | - | - |
| 1787822560 | 22.78° C | 50% | 1024.7 hPa | 0 mm | 0 m/s | - | - |
| 1787822500 | 23.33° C | 50% | 1024.7 hPa | 0 mm | 0.45 m/s, ° | - | - |
| 1787822440 | 22.78° C | 49% | 1024.7 hPa | 0 mm | 0 m/s | - | - |
| 1787822380 | 23.89° C | 48% | 1024.7 hPa | 0 mm | 0.45 m/s, ° | - | - |
| 1787822320 | 23.33° C | 48% | 1024.7 hPa | 0 mm | 0.45 m/s, ° | - | - |
| 1787822260 | 23.33° C | 49% | 1024.7 hPa | 0 mm | 0 m/s | - | - |
| 1787822199 | 23.89° C | 50% | 1024.7 hPa | 0 mm | 0.45 m/s, ° | - | - |
| 1787822139 | 23.89° C | 51% | 1024.8 hPa | 0 mm | 0 m/s | - | - |
| 1787822079 | 23.33° C | 51% | 1024.7 hPa | 0 mm | 0 m/s | - | - |
| 1787822020 | 22.78° C | 52% | 1024.7 hPa | 0 mm | 0 m/s | - | - |
| 1787821960 | 22.78° C | 53% | 1024.7 hPa | 0 mm | 0 m/s | - | - |
| 1787821900 | 22.22° C | 50% | 1024.7 hPa | 0 mm | 0 m/s | - | - |
| 1787821840 | 23.33° C | 50% | 1024.7 hPa | 0 mm | 0.89 m/s, ° | - | - |
| 1787821780 | 22.78° C | 51% | 1024.7 hPa | 0 mm | 0.45 m/s, ° | - | - |
| 1787821720 | 22.78° C | 53% | 1024.7 hPa | 0 mm | 0 m/s | - | - |
| 1787821660 | 22.22° C | 50% | 1024.7 hPa | 0 mm | 0 m/s | - | - |
| 1787821599 | 22.22° C | 50% | 1024.8 hPa | 0 mm | 0 m/s | - | - |
| 1787821539 | 22.78° C | 50% | 1024.7 hPa | 0 mm | 0.89 m/s, ° | - | - |
| 1787821479 | 23.33° C | 52% | 1024.7 hPa | 0 mm | 0.45 m/s, ° | - | - |
| 1787821419 | 22.78° C | 54% | 1024.7 hPa | 0 mm | 0 m/s | - | - |
* Rain latest hour (hover to see other rain measurements)
** Current wind speed in m/s (hover to see current wind gust speed)